Home > Weather > Simi Valley > Past weeks

Flag for USA Weather for the Past 2 Weeks in Simi Valley, California, USA

Now
57 °F

Passing clouds.


Feels Like: 55 °F
Forecast: 54 / 64 °F
Wind: 8 mph from Southeast

Location: Van Nuys Airport

Current Time: May 4, 2016 at 9:50:33 PM

Latest Report: May 4, 2016 at 8:51 PM


Visibility: 10 mi

Pressure: 29.90 "Hg

Humidity: 78%

Dew Point: 50 °F

Location of Simi ValleyLocation

Historic Weather in Simi Valley — Graph

°F

Simi Valley Temperature Yesterday

Maximum temperature yesterday: 88 °F (at 1:51 PM)
Minimum temperature yesterday: 59 °F (at 4:51 AM)
Average temperature yesterday: 71 °F

High & Low Weather Summary for the Past Weeks

 TemperatureHumidityPressure
High88 °F (May 3, 1:51 PM)93% (May 4, 6:51 AM)30.03 "Hg (May 4, 6:51 AM)
Low49 °F (Apr 26, 6:51 AM)8% (Apr 20, 1:51 PM)29.71 "Hg (Apr 27, 7:51 PM)
Average65 °F50%29.89 "Hg
* Reported Apr 19 7:51 PM — May 4 7:51 PM, Simi Valley, Weather by CustomWeather, © 2016

Note: Actual official high and low records may vary slightly from our data, if they occured in-between our weather recording intervals... More about our weather records

Advertising

Simi Valley Weather History for the Previous 24 Hours

Scroll right to see more
 ConditionsComfort  
Time TempWeatherWind HumidityBarometerVisibility
7:51 PM
Wed, May 4
59 °FSunny.10 mph75%29.88 "Hg10 mi
6:51 PM62 °FSunny.10 mph67%29.85 "Hg10 mi
5:51 PM70 °FSunny.15 mph51%29.84 "Hg10 mi
4:51 PM73 °FSunny.10 mph44%29.84 "Hg10 mi
3:51 PM73 °FSunny.13 mph46%29.85 "Hg10 mi
2:51 PM72 °FSunny.12 mph49%29.88 "Hg8 mi
1:51 PM73 °FSunny.8 mph50%29.89 "Hg8 mi
12:51 PM70 °FSunny.8 mph57%29.90 "Hg8 mi
11:51 AM66 °FOvercast.6 mph65%29.92 "Hg4 mi
10:51 AM62 °FOvercast.7 mph73%29.94 "Hg5 mi
9:59 AM59 °FLow clouds.3 mph81%29.96 "Hg3 mi
8:58 AM57 °FFog.No wind90%29.97 "Hg3 mi
7:51 AM57 °FFog.6 mph87%29.93 "Hg4 mi
6:51 AM56 °FFog.6 mph93%29.91 "Hg3 mi
5:51 AM57 °FFog.5 mph87%29.91 "Hg5 mi
4:51 AM58 °FClear.3 mph81%29.89 "Hg9 mi
3:51 AM58 °FClear.3 mph81%29.90 "Hg10 mi
2:51 AM59 °FClear.3 mph78%29.91 "Hg10 mi
1:51 AM59 °FClear.3 mph78%29.91 "Hg10 mi
12:51 AM59 °FClear.3 mph78%29.93 "Hg10 mi
11:51 PM
Tue, May 3
60 °FClear.No wind75%29.93 "Hg10 mi
10:51 PM61 °FClear.5 mph75%29.93 "Hg10 mi
9:51 PM60 °FClear.6 mph75%29.92 "Hg10 mi
Weather by CustomWeather, © 2016

See weather overviewHow to use our weather pages